Home > Weather > Nea Smyrni > Past weeks

Flag for Greece Past Weather in Nea Smyrni, Greece — Yesterday and Last 2 Weeks

Now
77 °F

Clear.


Feels Like: 78 °F
Forecast: 76 / 94 °F
Wind: 2 mph from North

Location: Eleftherios Venizelos International Airport

Current Time: Jul 31, 2016 at 3:41:45 AM

Latest Report: Jul 31, 2016 at 2:50 AM


Visibility: 10 mi

Pressure: 29.86 "Hg

Humidity: 39%

Dew Point: 50 °F

Location of Nea SmyrniLocation

Past Weather in Nea Smyrni — Graph

°F

Nea Smyrni Temperature Yesterday

Maximum temperature yesterday: 91 °F (at 1:20 PM)
Minimum temperature yesterday: 77 °F (at 4:50 AM)
Average temperature yesterday: 86 °F

High & Low Weather Summary for the Past Weeks

 TemperatureHumidityPressure
High93 °F (Jul 16, 3:20 PM)88% (Jul 16, 5:50 AM)29.98 "Hg (Jul 16, 5:50 AM)
Low64 °F (Jul 23, 2:50 AM)17% (Jul 16, 3:20 PM)29.71 "Hg (Jul 16, 2:20 AM)
Average82 °F38%29.87 "Hg
* Reported Jul 16 1:20 AM — Jul 31 1:50 AM, Nea Smyrni, Weather by CustomWeather, © 2016

Note: Actual official high and low records may vary slightly from our data, if they occured in-between our weather recording intervals... More about our weather records

Advertising

Nea Smyrni Weather History for the Previous 24 Hours

Scroll right to see more
 ConditionsComfort  
Time TempWeatherWind HumidityBarometerVisibility
1:50 AM
Sun, Jul 31
81 °FClear.2 mph32%29.89 "Hg10 mi
1:20 AM81 °FPassing clouds.5 mph32%29.89 "HgN/A
12:50 AM81 °FClear.7 mph32%29.89 "Hg10 mi
12:20 AM82 °FClear.7 mph30%29.86 "Hg10 mi
11:50 PM
Sat, Jul 30
81 °FClear.8 mph32%29.86 "Hg10 mi
11:20 PM81 °FPassing clouds.5 mph32%29.86 "HgN/A
10:50 PM81 °FClear.5 mph34%29.89 "Hg10 mi
10:20 PM86 °FClear.5 mph29%29.86 "Hg10 mi
9:50 PM86 °FClear.8 mph29%29.86 "Hg10 mi
9:20 PM84 °FSunny.6 mph33%29.86 "Hg10 mi
8:50 PM86 °FSunny.3 mph31%29.86 "Hg10 mi
8:20 PM88 °FSunny.9 mph27%29.83 "Hg10 mi
7:50 PM90 °FSunny.13 mph27%29.83 "Hg10 mi
7:20 PM90 °FSunny.15 mph27%29.83 "Hg10 mi
6:50 PM90 °FPassing clouds.18 mph27%29.83 "HgN/A
6:20 PM91 °FPassing clouds.20 mph28%29.83 "HgN/A
5:50 PM90 °FPassing clouds.20 mph31%29.83 "HgN/A
5:20 PM91 °FPassing clouds.21 mph30%29.83 "HgN/A
4:50 PM91 °FPassing clouds.17 mph30%29.83 "HgN/A
4:20 PM91 °FPassing clouds.14 mph30%29.86 "HgN/A
3:50 PM91 °FPassing clouds.15 mph28%29.86 "HgN/A
3:20 PM91 °FPassing clouds.16 mph28%29.86 "HgN/A
2:50 PM91 °FPassing clouds.17 mph28%29.86 "HgN/A
2:20 PM91 °FPassing clouds.23 mph26%29.86 "HgN/A
1:50 PM91 °FPassing clouds.18 mph28%29.86 "HgN/A
1:20 PM91 °FPassing clouds.21 mph30%29.86 "HgN/A
12:50 PM90 °FSunny.18 mph29%29.89 "Hg10 mi
12:20 PM90 °FSunny.17 mph31%29.86 "Hg10 mi
11:50 AM90 °FSunny.17 mph29%29.86 "Hg10 mi
11:20 AM90 °FSunny.18 mph29%29.86 "Hg10 mi
10:50 AM90 °FSunny.17 mph29%29.86 "Hg10 mi
10:20 AM88 °FSunny.15 mph31%29.89 "Hg10 mi
9:50 AM88 °FPassing clouds.12 mph31%29.89 "HgN/A
9:20 AM88 °FPassing clouds.12 mph29%29.86 "HgN/A
8:50 AM88 °FSunny.12 mph29%29.86 "Hg10 mi
8:20 AM86 °FSunny.2 mph31%29.86 "Hg10 mi
7:50 AM84 °FSunny.1 mph33%29.86 "Hg10 mi
7:20 AM82 °FClear.5 mph35%29.86 "Hg10 mi
6:50 AM81 °FClear.1 mph37%29.86 "Hg10 mi
6:20 AM79 °FClear.7 mph42%29.86 "Hg10 mi
5:50 AM77 °FClear.8 mph42%29.86 "Hg10 mi
5:20 AM77 °FClear.5 mph44%29.86 "Hg10 mi
4:50 AM77 °FClear.7 mph42%29.86 "Hg10 mi
4:20 AM81 °FClear.3 mph37%29.86 "Hg10 mi
3:50 AM79 °FClear.7 mph39%29.86 "Hg10 mi
3:20 AM79 °FClear.6 mph39%29.86 "Hg10 mi
Weather by CustomWeather, © 2016

See weather overviewHow to use our weather pages